RAM262 KSLC-KJAC

Flight info

Callsign RAM262
Flight time 0h 40m
Altitude 31000
Route RUGGD3 HOLTR ELLKK MOSSS
Aircraft A346/H-SDE2E3FGHIJ3J4J5M1RWXY/LB1D1

Departure

Time 2026-05-05 05:56
Airport Salt Lake City International Airport (KSLC)

Arrival

Time 2026-05-05 06:37
Airport Jackson Hole Airport (KJAC)
Time Latitude Longitude Altitude Speed Heading
2026-05-05 05:37 40.78634 -111.98610 4243 ft 0 kts 175°
2026-05-05 05:46 40.78637 -111.98610 4243 ft 3 kts 175°
2026-05-05 05:47 40.78660 -111.98612 4242 ft 2 kts 175°
2026-05-05 05:47 40.78681 -111.98618 4241 ft 4 kts 153°
2026-05-05 05:47 40.78693 -111.98631 4242 ft 4 kts 114°
2026-05-05 05:47 40.78695 -111.98657 4240 ft 4 kts 85°
2026-05-05 05:48 40.78693 -111.98691 4239 ft 3 kts 84°
2026-05-05 05:48 40.78692 -111.98696 4239 ft 0 kts 85°
2026-05-05 05:49 40.78696 -111.98640 4241 ft 13 kts 85°
2026-05-05 05:49 40.78705 -111.98510 4243 ft 16 kts 85°
2026-05-05 05:50 40.78715 -111.98351 4243 ft 19 kts 85°
2026-05-05 05:50 40.78727 -111.98177 4243 ft 15 kts 85°
2026-05-05 05:50 40.78731 -111.98107 4243 ft 0 kts 85°
2026-05-05 05:50 40.78731 -111.98106 4243 ft 0 kts 85°
2026-05-05 05:51 40.78732 -111.98092 4243 ft 3 kts 85°
2026-05-05 05:51 40.78735 -111.98053 4243 ft 6 kts 85°
2026-05-05 05:51 40.78742 -111.97958 4243 ft 14 kts 84°
2026-05-05 05:51 40.78750 -111.97863 4243 ft 3 kts 82°
2026-05-05 05:52 40.78757 -111.97833 4243 ft 12 kts 66°
2026-05-05 05:52 40.78824 -111.97736 4243 ft 16 kts 28°
2026-05-05 05:52 40.78955 -111.97707 4243 ft 24 kts 358°
2026-05-05 05:52 40.79127 -111.97718 4243 ft 26 kts 357°
2026-05-05 05:53 40.79312 -111.97743 4242 ft 28 kts 353°
2026-05-05 05:53 40.79508 -111.97772 4242 ft 29 kts 354°
2026-05-05 05:53 40.79713 -111.97793 4242 ft 30 kts 356°
2026-05-05 05:53 40.79925 -111.97817 4243 ft 31 kts 354°
2026-05-05 05:54 40.80142 -111.97844 4243 ft 32 kts 355°
2026-05-05 05:54 40.80359 -111.97829 4243 ft 26 kts
2026-05-05 05:54 40.80483 -111.97835 4243 ft 27 kts 357°
2026-05-05 05:54 40.80686 -111.97856 4242 ft 9 kts 358°
2026-05-05 05:55 40.80689 -111.97856 4242 ft 0 kts 359°
2026-05-05 05:55 40.80690 -111.97856 4242 ft 3 kts
2026-05-05 05:56 40.80674 -111.97663 4240 ft 42 kts 166°
2026-05-05 05:56 40.80415 -111.97644 4243 ft 84 kts 176°
2026-05-05 05:56 40.79578 -111.97554 4322 ft 155 kts 175°
2026-05-05 05:56 40.78466 -111.97456 5164 ft 171 kts 176°
2026-05-05 05:57 40.77303 -111.97328 6527 ft 174 kts 175°
2026-05-05 05:57 40.76050 -111.97184 7436 ft 192 kts 175°
2026-05-05 05:57 40.74635 -111.97008 8303 ft 222 kts 175°
2026-05-05 05:57 40.72942 -111.96811 8818 ft 269 kts 180°
2026-05-05 05:58 40.70951 -111.97323 9054 ft 314 kts 203°
2026-05-05 05:58 40.69215 -111.98902 9028 ft 298 kts 227°
2026-05-05 05:58 40.68231 -112.01186 9036 ft 285 kts 253°
2026-05-05 05:58 40.68133 -112.03772 9045 ft 286 kts 280°
2026-05-05 05:59 40.68861 -112.06182 9049 ft 289 kts 297°
2026-05-05 05:59 40.69890 -112.08459 9044 ft 290 kts 300°
2026-05-05 05:59 40.70969 -112.10713 9026 ft 289 kts 301°
2026-05-05 05:59 40.72055 -112.12955 9004 ft 290 kts 301°
2026-05-05 06:00 40.73183 -112.15216 9147 ft 312 kts 306°
2026-05-05 06:00 40.74984 -112.17049 10044 ft 342 kts 336°
2026-05-05 06:00 40.77337 -112.17498 11549 ft 351 kts
2026-05-05 06:00 40.79722 -112.16597 12791 ft 367 kts 25°
2026-05-05 06:01 40.82018 -112.14957 13839 ft 380 kts 28°
2026-05-05 06:01 40.84362 -112.13290 14811 ft 387 kts 27°
2026-05-05 06:01 40.86798 -112.11713 15706 ft 395 kts 25°
2026-05-05 06:01 40.89327 -112.10197 16593 ft 404 kts 24°
2026-05-05 06:02 40.91933 -112.08710 17543 ft 410 kts 24°
2026-05-05 06:02 40.94535 -112.07261 18432 ft 416 kts 23°
2026-05-05 06:02 40.97267 -112.05754 19271 ft 423 kts 23°
2026-05-05 06:02 41.00006 -112.04251 20063 ft 431 kts 23°
2026-05-05 06:03 41.02711 -112.02473 20817 ft 438 kts 34°
2026-05-05 06:03 41.04983 -111.99882 21568 ft 443 kts 49°
2026-05-05 06:03 41.06728 -111.96494 22356 ft 447 kts 63°
2026-05-05 06:03 41.08067 -111.92737 23168 ft 453 kts 67°
2026-05-05 06:04 41.09363 -111.88885 23843 ft 459 kts 67°
2026-05-05 06:04 41.10681 -111.84986 24485 ft 465 kts 66°
2026-05-05 06:04 41.12204 -111.81184 25180 ft 470 kts 56°
2026-05-05 06:04 41.14432 -111.78083 25851 ft 474 kts 38°
2026-05-05 06:05 41.17338 -111.75912 26559 ft 477 kts 20°
2026-05-05 06:05 41.20524 -111.74874 27251 ft 479 kts
2026-05-05 06:05 41.23832 -111.74150 27926 ft 484 kts
2026-05-05 06:05 41.27178 -111.73440 28539 ft 490 kts
2026-05-05 06:06 41.30558 -111.72694 29220 ft 495 kts
2026-05-05 06:06 41.33965 -111.71907 30043 ft 495 kts
2026-05-05 06:06 41.37360 -111.71065 30540 ft 500 kts 11°
2026-05-05 06:06 41.40783 -111.69986 30760 ft 507 kts 14°
2026-05-05 06:07 41.47451 -111.67433 30736 ft 495 kts 16°
2026-05-05 06:07 41.53971 -111.64844 30766 ft 495 kts 15°
2026-05-05 06:08 41.60528 -111.62254 30789 ft 489 kts 16°
2026-05-05 06:08 41.67048 -111.59683 30802 ft 488 kts 16°
2026-05-05 06:09 41.73574 -111.57109 30797 ft 488 kts 16°
2026-05-05 06:09 41.80092 -111.54745 30744 ft 487 kts 12°
2026-05-05 06:10 41.86749 -111.53079 30731 ft 487 kts
2026-05-05 06:10 41.93436 -111.51586 30738 ft 486 kts
2026-05-05 06:11 42.00111 -111.50089 30734 ft 487 kts
2026-05-05 06:11 42.06803 -111.48578 30736 ft 487 kts
2026-05-05 06:12 42.13487 -111.47063 30736 ft 487 kts
2026-05-05 06:12 42.20119 -111.45550 30747 ft 486 kts
2026-05-05 06:13 42.26770 -111.43950 30742 ft 486 kts 11°
2026-05-05 06:13 42.33320 -111.41593 30731 ft 487 kts 16°
2026-05-05 06:14 42.39703 -111.38529 30743 ft 487 kts 18°
2026-05-05 06:14 42.46072 -111.35337 30742 ft 488 kts 18°
2026-05-05 06:15 42.52439 -111.32152 30761 ft 488 kts 18°
2026-05-05 06:15 42.58778 -111.28985 30795 ft 488 kts 18°
2026-05-05 06:16 42.65144 -111.25795 30830 ft 487 kts 18°
2026-05-05 06:16 42.71525 -111.22600 30848 ft 487 kts 18°
2026-05-05 06:17 42.77901 -111.19398 30860 ft 487 kts 18°
2026-05-05 06:17 42.84253 -111.16200 30765 ft 488 kts 18°
2026-05-05 06:18 42.87431 -111.14570 30462 ft 487 kts 19°
2026-05-05 06:18 42.90476 -111.12685 29809 ft 487 kts 24°
2026-05-05 06:18 42.93475 -111.10383 28918 ft 487 kts 29°
2026-05-05 06:18 42.96272 -111.07771 28160 ft 485 kts 34°
2026-05-05 06:19 42.98919 -111.04964 27641 ft 478 kts 36°
2026-05-05 06:19 43.01471 -111.02180 27077 ft 474 kts 36°
2026-05-05 06:19 43.04020 -110.99380 26531 ft 469 kts 36°
2026-05-05 06:19 43.06554 -110.96595 26009 ft 464 kts 36°
2026-05-05 06:20 43.09060 -110.93847 25483 ft 458 kts 36°
2026-05-05 06:20 43.11534 -110.91137 24994 ft 454 kts 36°
2026-05-05 06:20 43.13991 -110.88447 24486 ft 450 kts 36°
2026-05-05 06:20 43.16428 -110.85777 23996 ft 446 kts 36°
2026-05-05 06:21 43.18844 -110.83127 23468 ft 443 kts 36°
2026-05-05 06:21 43.21244 -110.80496 22892 ft 439 kts 36°
2026-05-05 06:21 43.23617 -110.77889 22365 ft 434 kts 36°
2026-05-05 06:21 43.25967 -110.75307 21869 ft 429 kts 36°
2026-05-05 06:22 43.28289 -110.72752 21374 ft 425 kts 36°
2026-05-05 06:22 43.30579 -110.70229 20879 ft 421 kts 36°
2026-05-05 06:22 43.32851 -110.67723 20397 ft 417 kts 36°
2026-05-05 06:22 43.35109 -110.65234 19912 ft 414 kts 36°
2026-05-05 06:23 43.37337 -110.62770 19445 ft 410 kts 36°
2026-05-05 06:23 43.39518 -110.60360 18951 ft 407 kts 36°
2026-05-05 06:23 43.41718 -110.57930 18472 ft 405 kts 36°
2026-05-05 06:23 43.43909 -110.55506 17964 ft 402 kts 36°
2026-05-05 06:24 43.46087 -110.53096 17443 ft 399 kts 36°
2026-05-05 06:24 43.48242 -110.50705 16947 ft 396 kts 36°
2026-05-05 06:24 43.50376 -110.48335 16467 ft 393 kts 36°
2026-05-05 06:24 43.52499 -110.45974 15999 ft 390 kts 36°
2026-05-05 06:25 43.54607 -110.43628 15525 ft 387 kts 36°
2026-05-05 06:25 43.56697 -110.41302 15044 ft 385 kts 36°
2026-05-05 06:25 43.58771 -110.38988 14576 ft 382 kts 36°
2026-05-05 06:25 43.60833 -110.36689 14225 ft 375 kts 36°
2026-05-05 06:26 43.62813 -110.34475 14170 ft 359 kts 36°
2026-05-05 06:26 43.64692 -110.32370 14085 ft 343 kts 36°
2026-05-05 06:26 43.66524 -110.30341 14035 ft 327 kts 33°
2026-05-05 06:26 43.68503 -110.29067 14020 ft 305 kts
2026-05-05 06:27 43.70561 -110.28998 13815 ft 293 kts 347°
2026-05-05 06:27 43.74397 -110.30404 13369 ft 277 kts 342°
2026-05-05 06:27 43.76229 -110.31110 13192 ft 269 kts 343°
2026-05-05 06:28 43.78003 -110.31770 13035 ft 260 kts 343°
2026-05-05 06:28 43.79708 -110.32392 12922 ft 251 kts 343°
2026-05-05 06:28 43.81231 -110.33342 12831 ft 237 kts 320°
2026-05-05 06:28 43.82228 -110.35045 12822 ft 224 kts 295°
2026-05-05 06:29 43.82586 -110.37117 12568 ft 216 kts 272°
2026-05-05 06:29 43.82487 -110.39135 12253 ft 208 kts 266°
2026-05-05 06:29 43.82329 -110.41075 12001 ft 197 kts 265°
2026-05-05 06:29 43.82175 -110.42891 11777 ft 184 kts 265°
2026-05-05 06:30 43.82040 -110.44576 11623 ft 172 kts 266°
2026-05-05 06:30 43.81920 -110.46161 11492 ft 172 kts 266°
2026-05-05 06:30 43.81799 -110.47802 11333 ft 171 kts 266°
2026-05-05 06:30 43.81681 -110.49442 11207 ft 172 kts 266°
2026-05-05 06:31 43.81563 -110.51082 11066 ft 171 kts 266°
2026-05-05 06:31 43.81386 -110.52696 11033 ft 169 kts 259°
2026-05-05 06:31 43.81030 -110.54239 10908 ft 168 kts 250°
2026-05-05 06:31 43.80555 -110.55691 10588 ft 166 kts 247°
2026-05-05 06:32 43.80061 -110.57126 10333 ft 166 kts 247°
2026-05-05 06:32 43.79561 -110.58569 10125 ft 166 kts 246°
2026-05-05 06:32 43.79061 -110.60016 9909 ft 170 kts 246°
2026-05-05 06:32 43.78516 -110.61453 9848 ft 170 kts 237°
2026-05-05 06:33 43.77752 -110.62697 9803 ft 172 kts 223°
2026-05-05 06:33 43.76842 -110.63752 9457 ft 171 kts 219°
2026-05-05 06:33 43.75902 -110.64749 9193 ft 172 kts 218°
2026-05-05 06:33 43.74976 -110.65726 8991 ft 171 kts 219°
2026-05-05 06:34 43.74036 -110.66696 8821 ft 170 kts 216°
2026-05-05 06:34 43.73057 -110.67507 8648 ft 170 kts 209°
2026-05-05 06:34 43.72032 -110.68172 8607 ft 170 kts 205°
2026-05-05 06:34 43.70977 -110.68769 8499 ft 171 kts 201°
2026-05-05 06:35 43.69906 -110.69304 8273 ft 170 kts 200°
2026-05-05 06:35 43.68805 -110.69835 8060 ft 168 kts 198°
2026-05-05 06:35 43.67737 -110.70349 7823 ft 167 kts 199°
2026-05-05 06:35 43.66686 -110.70863 7614 ft 167 kts 198°
2026-05-05 06:36 43.65636 -110.71375 7414 ft 167 kts 200°
2026-05-05 06:36 43.64571 -110.71899 7183 ft 167 kts 199°
2026-05-05 06:36 43.63509 -110.72418 6951 ft 166 kts 200°
2026-05-05 06:36 43.62469 -110.72931 6668 ft 167 kts 199°
2026-05-05 06:37 43.61435 -110.73424 6442 ft 167 kts 198°
2026-05-05 06:37 43.60559 -110.73851 6428 ft 108 kts 200°
2026-05-05 06:37 43.60145 -110.74059 6425 ft 41 kts 200°
2026-05-05 06:37 43.59971 -110.74134 6427 ft 16 kts 179°
2026-05-05 06:38 43.59926 -110.74038 6426 ft 9 kts 60°
2026-05-05 06:38 43.59991 -110.73989 6426 ft 12 kts 22°
2026-05-05 06:38 43.60078 -110.73940 6426 ft 15 kts 22°
2026-05-05 06:38 43.60170 -110.73891 6428 ft 11 kts 20°
2026-05-05 06:39 43.60220 -110.73866 6426 ft 0 kts 20°
2026-05-05 06:39 43.60247 -110.73853 6425 ft 9 kts 20°
2026-05-05 06:39 43.60308 -110.73821 6426 ft 11 kts 23°
2026-05-05 06:40 43.60338 -110.73787 6425 ft 3 kts 65°
2026-05-05 06:40 43.60339 -110.73780 6426 ft 0 kts 84°
2026-05-05 06:40 43.60340 -110.73764 6426 ft 0 kts 90°
2026-05-05 06:40 43.60339 -110.73752 6427 ft 1 kts 96°
2026-05-05 06:41 43.60338 -110.73742 6427 ft 0 kts 99°